EW6625 Weather Reports


Display with metric or nautical units.
time (UTC)temp
F
wind
direction
speed
MPH
gust
MPH
rain 1hr
in
rain 24hr
in
rain mn
in
humidity
%
barometer
mb
20210728173545 71 28 5.0 10.0 0.00 0.57 0.01 63 1019.4
20210728173040 71 291 6.0 14.0 0.00 0.57 0.01 64 1019.5
20210728172537 72 6 5.0 14.0 0.00 0.57 0.01 65 1019.5
20210728172037 71 314 5.0 11.0 0.00 0.57 0.01 63 1019.4
20210728171537 71 260 5.0 15.0 0.00 0.57 0.01 65 1019.4
20210728171037 71 15 4.0 15.0 0.00 0.57 0.01 64 1019.4
20210728170537 71 344 4.0 15.0 0.00 0.57 0.01 68 1019.5
20210728170038 71 295 4.0 15.0 0.00 0.57 0.01 63 1019.6
20210728165537 71 238 3.0 8.0 0.00 0.57 0.01 66 1019.7
20210728165038 70 46 4.0 8.0 0.00 0.57 0.01 65 1019.7
20210728164537 71 297 4.0 18.0 0.00 0.57 0.01 65 1019.8
20210728164036 71 197 4.0 18.0 0.00 0.57 0.01 68 1019.9
20210728163537 70 291 4.0 8.0 0.00 0.57 0.01 66 1020.0
20210728163036 70 35 4.0 9.0 0.00 0.57 0.01 70 1020.0
20210728162538 69 23 4.0 10.0 0.00 0.57 0.01 71 1020.2
20210728162038 69 281 4.0 10.0 0.00 0.57 0.01 71 1020.1
20210728161536 69 272 3.0 8.0 0.00 0.57 0.01 71 1020.1
20210728161037 68 167 3.0 8.0 0.00 0.57 0.01 73 1020.1
20210728160542 68 269 3.0 7.0 0.00 0.57 0.01 73 1020.0
20210728160038 67 260 3.0 8.0 0.00 0.57 0.01 74 1020.0
20210728155534 68 23 4.0 8.0 0.00 0.57 0.01 75 1020.1
20210728155034 68 240 4.0 10.0 0.00 0.57 0.01 75 1020.1
20210728154533 67 281 5.0 10.0 0.00 0.57 0.01 75 1020.1
20210728154033 68 291 5.0 11.0 0.00 0.57 0.01 75 1020.1
20210728153532 67 6 4.0 11.0 0.00 0.57 0.01 76 1020.1
20210728153032 67 344 4.0 10.0 0.00 0.57 0.01 75 1020.1
20210728152536 67 25 5.0 10.0 0.00 0.57 0.01 75 1020.3
20210728152036 68 44 6.0 13.0 0.00 0.57 0.01 79 1020.1
20210728151533 67 74 6.0 13.0 0.00 0.57 0.01 81 1020.1
20210728151033 66 64 5.0 13.0 0.00 0.57 0.01 79 1020.2
20210728150534 67 6 4.0 13.0 0.00 0.57 0.01 79 1020.0
20210728150032 67 303 4.0 13.0 0.00 0.57 0.01 80 1020.0
20210728145533 67 42 4.0 13.0 0.00 0.57 0.01 80 1020.1
20210728145033 66 347 4.0 9.0 0.00 0.57 0.01 82 1020.1
20210728144533 66 309 4.0 9.0 0.00 0.57 0.01 80 1020.1
20210728144033 66 39 4.0 10.0 0.00 0.57 0.01 83 1020.0
20210728143532 65 18 5.0 13.0 0.00 0.57 0.01 83 1020.0
20210728143033 65 53 6.0 13.0 0.00 0.57 0.01 81 1019.9
20210728142534 65 250 5.0 10.0 0.00 0.57 0.01 81 1019.8
20210728142032 66 46 5.0 13.0 0.00 0.57 0.01 81 1019.8
20210728141533 66 20 5.0 13.0 0.00 0.57 0.01 81 1019.8
20210728141033 65 9 5.0 13.0 0.00 0.57 0.01 85 1019.9
20210728140534 66 303 4.0 13.0 0.00 0.57 0.01 82 1019.9
20210728140033 66 53 4.0 9.0 0.00 0.57 0.01 83 1019.7
20210728135534 66 240 4.0 9.0 0.00 0.57 0.01 84 1019.8
20210728135033 66 335 4.0 11.0 0.00 0.57 0.01 83 1019.8
20210728134533 65 79 5.0 12.0 0.00 0.57 0.01 85 1019.8
20210728134033 65 15 4.0 12.0 0.00 0.57 0.01 85 1019.9
20210728133535 65 321 3.0 7.0 0.00 0.57 0.01 88 1019.9
20210728133033 65 288 3.0 11.0 0.00 0.57 0.01 88 1019.8
20210728132532 65 63 4.0 11.0 0.00 0.57 0.01 89 1019.9
20210728132035 65 308 4.0 8.0 0.00 0.57 0.01 88 1019.8
20210728131533 64 321 5.0 12.0 0.00 0.57 0.01 88 1019.9
20210728131032 64 325 5.0 12.0 0.00 0.57 0.01 86 1019.9
20210728130534 63 15 4.0 9.0 0.00 0.57 0.01 90 1019.9
20210728130034 63 46 4.0 9.0 0.00 0.57 0.01 92 1020.0
20210728125532 62 314 4.0 9.0 0.00 0.57 0.01 93 1020.0
20210728125031 63 336 4.0 8.0 0.00 0.57 0.01 94 1020.0
20210728124530 63 290 3.0 8.0 0.00 0.57 0.01 93 1020.0
20210728124030 63 315 2.0 7.0 0.00 0.57 0.01 93 1019.9
20210728123530 63 318 2.0 5.0 0.00 0.57 0.01 93 1019.8
20210728123030 63 53 2.0 4.0 0.00 0.57 0.01 93 1019.8
20210728122532 63 279 2.0 4.0 0.00 0.57 0.01 93 1019.7
20210728122031 63 46 1.0 3.0 0.00 0.57 0.01 93 1019.8
20210728121530 63 331 2.0 3.0 0.00 0.57 0.01 93 1019.7
20210728121023 62 56 2.0 4.0 0.00 0.57 0.01 93 1019.8
20210728120516 63 328 2.0 4.0 0.00 0.57 0.01 93 1019.8
20210728120011 63 35 2.0 5.0 0.00 0.57 0.01 93 1019.6
20210728115510 63 290 1.0 5.0 0.00 0.57 0.01 93 1019.6
20210728115009 63 269 1.0 4.0 0.00 0.57 0.01 93 1019.5
20210728114508 62 286 1.0 4.0 0.00 0.57 0.01 94 1019.4
20210728114008 62 178 1.0 3.0 0.00 0.57 0.01 94 1019.4
20210728113508 62 46 1.0 3.0 0.00 0.57 0.01 95 1019.3
20210728113008 62 233 2.0 3.0 0.00 0.57 0.01 95 1019.2
20210728112508 62 236 1.0 2.0 0.00 0.57 0.01 95 1019.3
20210728112007 62 290 1.0 2.0 0.00 0.57 0.01 96 1019.2
20210728111505 62 56 1.0 2.0 0.00 0.57 0.01 96 1019.1
20210728111002 62 1 1.0 3.0 0.00 0.57 0.01 97 1019.1
20210728110504 62 135 1.0 3.0 0.00 0.57 0.01 97 1019.1
20210728110005 61 135 1.0 2.0 0.00 0.57 0.01 97 1019.1
20210728105503 61 222 1.0 2.0 0.00 0.57 0.01 97 1019.1
20210728105003 61 314 1.0 4.0 0.00 0.57 0.01 97 1019.1
20210728104501 61 28 2.0 4.0 0.00 0.57 0.01 97 1019.1
20210728104002 61 28 2.0 4.0 0.00 0.57 0.01 97 1019.0
20210728103502 61 54 2.0 4.0 0.00 0.57 0.01 97 1019.0
20210728103002 61 20 1.0 3.0 0.00 0.57 0.01 98 1019.0
20210728102501 61 130 1.0 3.0 0.00 0.57 0.01 98 1019.0
20210728102003 61 13 1.0 4.0 0.00 0.57 0.01 98 1019.1
20210728101501 61 160 1.0 4.0 0.00 0.57 0.01 98 1019.0
20210728101002 61 297 2.0 4.0 0.00 0.57 0.01 98 1019.0
20210728100501 61 13 2.0 4.0 0.00 0.57 0.01 98 1018.9
20210728100005 61 286 1.0 4.0 0.00 0.57 0.01 98 1018.8
20210728095503 61 344 1.0 5.0 0.00 0.57 0.01 98 1018.8
20210728095005 61 314 1.0 5.0 0.00 0.57 0.01 98 1018.6
20210728094503 61 277 1.0 3.0 0.00 0.57 0.01 99 1018.8
20210728094001 61 152 1.0 2.0 0.00 0.57 0.01 99 1018.6
20210728093501 61 35 1.0 4.0 0.00 0.57 0.01 99 1018.5
20210728093002 61 1 1.0 4.0 0.00 0.57 0.01 99 1018.6
20210728092501 62 223 1.0 4.0 0.00 0.57 0.01 99 1018.5
20210728092001 62 314 1.0 4.0 0.00 0.57 0.01 99 1018.6
20210728091500 62 135 0.0 2.0 0.00 0.57 0.01 99 1018.4
20210728091004 62 1 0.0 2.0 0.00 0.57 0.01 99 1018.4
20210728090500 62 46 1.0 3.0 0.00 0.57 0.01 99 1018.3
20210728085954 62 327 1.0 3.0 0.00 0.57 0.01 99 1018.3
20210728085448 62 240 0.0 2.0 0.00 0.57 0.01 99 1018.3
20210728084943 62 223 0.0 2.0 0.00 0.57 0.01 99 1018.3
20210728084437 62 193 1.0 2.0 0.00 0.57 0.01 99 1018.2
20210728083932 62 1 1.0 3.0 0.00 0.57 0.01 99 1018.3
20210728083431 62 331 2.0 4.0 0.00 0.57 0.01 99 1018.3
20210728082930 62 269 2.0 5.0 0.00 0.57 0.01 99 1018.3
20210728082429 62 314 1.0 5.0 0.00 0.57 0.01 99 1018.2
20210728081930 62 283 1.0 3.0 0.00 0.57 0.01 99 1018.2
20210728081429 62 283 0.0 2.0 0.00 0.57 0.01 99 1018.2
20210728080930 61 314 1.0 2.0 0.01 0.57 0.01 99 1018.2
20210728080430 61 178 1.0 3.0 0.01 0.57 0.01 99 1018.2
20210728075929 61 295 1.0 3.0 0.01 0.57 0.01 99 1018.1
20210728075429 61 290 1.0 3.0 0.01 0.57 0.01 99 1018.1
20210728074931 61 293 1.0 3.0 0.01 0.57 0.01 99 1018.1
20210728074430 61 206 1.0 3.0 0.01 0.57 0.01 99 1018.2
20210728073930 61 223 1.0 3.0 0.01 0.57 0.01 99 1018.3
20210728073430 60 164 1.0 2.0 0.01 0.57 0.01 99 1018.2
20210728072929 60 72 1.0 2.0 0.01 0.57 0.01 99 1018.2
20210728072429 61 206 1.0 5.0 0.01 0.57 0.01 99 1018.1
20210728071931 61 11 2.0 5.0 0.01 0.57 0.01 99 1018.0
20210728071428 61 331 2.0 4.0 0.01 0.57 0.01 99 1018.0
20210728070921 61 342 2.0 5.0 0.00 0.56 0.00 99 1018.0
20210728070416 61 297 2.0 5.0 0.00 0.56 0.00 99 1018.0
20210728065907 61 193 2.0 4.0 0.00 0.56 0.00 99 1018.0
20210728065407 61 295 1.0 2.0 0.00 0.56 0.00 99 1018.0
20210728064906 61 1 0.0 2.0 0.00 0.56 0.00 99 1018.3
20210728064406 60 1 0.0 2.0 0.00 0.56 0.00 99 1018.1
20210728063906 60 178 0.0 1.0 0.00 0.56 0.00 99 1018.0
20210728063405 60 160 0.0 1.0 0.00 0.56 0.00 99 1017.9
20210728062907 60 135 0.0 1.0 0.00 0.56 0.00 99 1018.0
20210728062406 60 135 0.0 2.0 0.00 0.56 0.00 99 1018.1
20210728061908 60 178 0.0 2.0 0.00 0.56 0.00 99 1018.1
20210728061407 60 222 0.0 1.0 0.00 0.56 0.00 99 1018.1
20210728060906 60 178 1.0 2.0 0.00 0.56 0.00 99 1018.0
20210728060401 60 20 1.0 2.0 0.00 0.56 0.00 99 1018.0
20210728055903 60 290 1.0 2.0 0.00 0.56 0.00 99 1018.0
20210728055402 60 187 0.0 2.0 0.00 0.56 0.00 99 1017.8
20210728054900 60 135 1.0 2.0 0.00 0.56 0.00 99 1017.9
20210728054401 60 303 1.0 2.0 0.00 0.56 0.00 99 1017.9
20210728053903 60 324 0.0 2.0 0.00 0.56 0.00 99 1017.9
20210728053402 60 340 1.0 2.0 0.00 0.56 0.00 99 1017.8
20210728052900 60 206 1.0 2.0 0.00 0.56 0.00 99 1017.8
20210728052402 60 178 1.0 2.0 0.00 0.56 0.00 99 1017.9
20210728051902 59 197 1.0 2.0 0.00 0.56 0.00 99 1018.0
20210728051405 59 300 1.0 2.0 0.00 0.56 0.00 99 1018.0
20210728050900 59 295 1.0 2.0 0.00 0.56 0.00 99 1017.9
20210728050401 59 269 1.0 2.0 0.00 0.56 0.00 99 1018.0
20210728045901 60 303 1.0 2.0 0.00 0.56 0.00 98 1017.9
20210728045401 60 1 1.0 2.0 0.00 0.56 0.00 99 1017.8
20210728044901 60 303 1.0 2.0 0.00 0.56 0.00 99 1017.8
20210728044402 60 302 1.0 2.0 0.00 0.56 0.00 99 1017.9
20210728043902 60 286 1.0 2.0 0.00 0.56 0.00 99 1017.9
20210728043403 60 178 1.0 2.0 0.00 0.56 0.00 99 1017.8
20210728042904 60 193 1.0 2.0 0.00 0.56 0.00 99 1017.8
20210728042401 60 178 0.0 1.0 0.00 0.56 0.00 99 1017.8
20210728041901 60 178 0.0 1.0 0.00 0.56 0.00 98 1017.9
20210728041402 60 46 0.0 2.0 0.00 0.56 0.00 98 1017.9
20210728040901 60 222 1.0 2.0 0.00 0.56 0.00 99 1017.9
20210728040402 61 314 1.0 1.0 0.00 0.56 0.00 99 1017.9
20210728035901 61 340 1.0 1.0 0.00 0.56 0.56 98 1017.9
20210728035406 61 314 0.0 2.0 0.00 0.56 0.56 98 1017.9
20210728034901 61 89 1.0 2.0 0.00 0.56 0.56 98 1017.7
20210728034401 61 39 1.0 2.0 0.00 0.56 0.56 98 1017.7
20210728033902 61 105 1.0 2.0 0.00 0.56 0.56 98 1017.7
20210728033401 61 79 1.0 2.0 0.00 0.56 0.56 98 1017.7
20210728032901 61 58 1.0 2.0 0.00 0.56 0.56 98 1017.7
20210728032401 61 89 1.0 1.0 0.00 0.56 0.56 98 1017.6
20210728031900 61 340 1.0 2.0 0.00 0.56 0.56 98 1017.6
20210728031404 61 295 1.0 2.0 0.00 0.56 0.56 98 1017.7
20210728030903 61 279 1.0 2.0 0.00 0.56 0.56 98 1017.7
20210728030403 61 314 1.0 2.0 0.00 0.56 0.56 98 1017.8
20210728025858 61 11 1.0 3.0 0.00 0.56 0.56 98 1017.8
20210728025352 61 279 2.0 3.0 0.00 0.56 0.56 98 1017.8
20210728024846 61 269 2.0 3.0 0.00 0.56 0.56 98 1017.8
20210728024340 61 277 2.0 3.0 0.00 0.56 0.56 98 1017.8
20210728023833 61 279 2.0 3.0 0.00 0.56 0.56 98 1017.7
20210728023332 61 277 1.0 3.0 0.00 0.56 0.56 98 1017.7
20210728022832 61 233 1.0 2.0 0.00 0.56 0.56 98 1017.6
20210728022331 61 206 1.0 2.0 0.00 0.56 0.56 98 1017.5
20210728021830 61 269 1.0 2.0 0.00 0.56 0.56 98 1017.3
20210728021332 61 269 1.0 2.0 0.00 0.56 0.56 98 1017.3
20210728020831 61 269 1.0 2.0 0.00 0.56 0.56 98 1017.2
20210728020330 61 269 1.0 3.0 0.00 0.56 0.56 98 1017.2
20210728015830 61 302 1.0 3.0 0.00 0.56 0.56 98 1017.2
20210728015331 62 18 1.0 3.0 0.00 0.56 0.56 98 1017.1
20210728014831 62 295 1.0 3.0 0.00 0.56 0.56 98 1017.3
20210728014329 62 35 1.0 2.0 0.00 0.56 0.56 98 1017.2
20210728013829 62 89 0.0 2.0 0.00 0.56 0.56 98 1017.2
20210728013328 62 117 1.0 2.0 0.00 0.56 0.56 98 1017.2
20210728012831 62 89 1.0 2.0 0.00 0.56 0.56 98 1017.2
20210728012329 62 28 0.0 2.0 0.00 0.56 0.56 98 1017.3
20210728011830 62 295 1.0 2.0 0.00 0.56 0.56 98 1017.3
20210728011330 62 314 1.0 3.0 0.00 0.56 0.56 98 1017.5
20210728010829 62 286 1.0 3.0 0.00 0.56 0.56 98 1017.4
20210728010330 62 269 2.0 3.0 0.00 0.56 0.56 98 1017.5
20210728005829 63 257 2.0 3.0 0.01 0.56 0.56 98 1017.4
20210728005331 62 279 2.0 3.0 0.04 0.56 0.56 98 1017.3
20210728004829 63 277 1.0 3.0 0.06 0.56 0.56 98 1017.3
20210728004330 63 286 1.0 3.0 0.18 0.56 0.56 98 1017.3
20210728003830 63 283 2.0 4.0 0.20 0.56 0.56 98 1017.4
20210728003330 63 240 1.0 4.0 0.22 0.56 0.56 97 1017.4
20210728002832 63 240 1.0 5.0 0.24 0.56 0.56 98 1017.5
20210728002329 63 223 1.0 5.0 0.24 0.56 0.56 98 1017.5
20210728001833 63 178 1.0 4.0 0.24 0.56 0.56 98 1017.7
20210728001331 63 178 1.0 4.0 0.24 0.56 0.56 98 1017.6
20210728000832 63 250 2.0 5.0 0.24 0.56 0.56 97 1017.6
20210728000331 63 223 2.0 6.0 0.24 0.56 0.56 97 1017.7
20210727235830 63 190 2.0 6.0 0.26 0.55 0.55 97 1017.6
20210727235329 63 193 2.0 5.0 0.27 0.52 0.52 97 1018.0
20210727234830 63 223 2.0 4.0 0.33 0.50 0.50 97 1018.2
20210727234329 63 291 2.0 4.0 0.24 0.38 0.38 97 1018.2
20210727233830 63 286 2.0 4.0 0.22 0.36 0.36 97 1017.7
20210727233328 63 222 2.0 4.0 0.20 0.34 0.34 96 1017.7
20210727232829 63 269 1.0 4.0 0.18 0.32 0.32 97 1017.9
20210727232330 63 286 0.0 2.0 0.18 0.32 0.32 96 1017.7
20210727231829 63 178 0.0 2.0 0.18 0.32 0.32 96 1017.6
20210727231329 63 28 1.0 2.0 0.18 0.32 0.32 96 1017.7
20210727230831 63 314 2.0 6.0 0.18 0.32 0.32 96 1017.7
20210727230330 63 279 2.0 7.0 0.18 0.32 0.32 95 1017.4
20210727225831 63 271 4.0 10.0 0.16 0.29 0.29 94 1017.8
20210727225330 64 14 4.0 10.0 0.13 0.25 0.25 94 1018.5
20210727224830 64 338 3.0 9.0 0.05 0.17 0.17 94 1018.9
20210727224330 64 25 2.0 4.0 0.03 0.14 0.14 94 1018.1
20210727223831 64 327 2.0 4.0 0.04 0.14 0.14 94 1017.6
20210727223329 64 39 3.0 5.0 0.05 0.14 0.14 95 1017.2
20210727222828 64 51 3.0 5.0 0.07 0.14 0.14 94 1017.2
20210727222329 64 46 3.0 5.0 0.08 0.14 0.14 94 1017.4
20210727221831 64 56 3.0 5.0 0.10 0.14 0.14 95 1017.3
20210727221329 64 70 2.0 5.0 0.13 0.14 0.14 96 1017.4
20210727220829 64 60 2.0 5.0 0.14 0.14 0.14 95 1017.5
20210727220329 63 127 2.0 5.0 0.14 0.14 0.14 94 1017.7
20210727215832 64 84 2.0 5.0 0.13 0.13 0.13 93 1017.8
20210727215331 64 89 2.0 3.0 0.12 0.12 0.12 92 1018.1
20210727214831 64 28 2.0 6.0 0.12 0.12 0.12 92 1018.2
20210727214332 64 35 3.0 6.0 0.11 0.11 0.11 92 1018.5
20210727213831 64 21 3.0 7.0 0.10 0.10 0.10 92 1019.0
20210727213333 64 262 4.0 13.0 0.09 0.09 0.09 92 1019.6
20210727212832 64 250 5.0 14.0 0.07 0.07 0.07 90 1019.5
20210727212338 64 291 6.0 18.0 0.06 0.06 0.06 88 1019.3
20210727211833 65 197 7.0 18.0 0.04 0.04 0.04 87 1019.1
20210727211331 66 283 7.0 20.0 0.01 0.01 0.01 83 1019.2
20210727210833 68 15 7.0 20.0 0.00 0.00 0.00 78 1019.3
20210727210334 69 302 9.0 21.0 0.00 0.00 0.00 73 1019.1
20210727205833 70 18 10.0 21.0 0.00 0.00 0.00 70 1019.0
20210727205330 71 309 11.0 24.0 0.00 0.00 0.00 66 1018.9
20210727204829 73 23 10.0 24.0 0.00 0.00 0.00 62 1018.6
20210727204329 75 18 6.0 19.0 0.00 0.00 0.00 59 1018.5
20210727203828 80 315 4.0 18.0 0.00 0.00 0.00 54 1018.6
20210727203330 81 295 4.0 13.0 0.00 0.00 0.00 49 1017.6
20210727202830 82 333 5.0 13.0 0.00 0.00 0.00 45 1017.5
20210727202330 82 243 4.0 10.0 0.00 0.00 0.00 44 1017.6
20210727201829 82 245 5.0 12.0 0.00 0.00 0.00 45 1017.5
20210727201331 82 293 5.0 12.0 0.00 0.00 0.00 47 1017.4
20210727200830 82 334 5.0 11.0 0.00 0.00 0.00 44 1017.4
20210727200330 82 224 5.0 11.0 0.00 0.00 0.00 46 1017.2
20210727195830 82 290 5.0 12.0 0.00 0.00 0.00 44 1017.1
20210727195332 82 250 5.0 12.0 0.00 0.00 0.00 45 1017.1
20210727194831 82 303 5.0 16.0 0.00 0.00 0.00 45 1017.1
20210727194333 82 300 6.0 16.0 0.00 0.00 0.00 44 1016.9
20210727193835 82 311 5.0 9.0 0.00 0.00 0.00 48 1016.8
20210727193332 82 222 5.0 11.0 0.00 0.00 0.00 47 1016.6
20210727192831 82 226 5.0 11.0 0.00 0.00 0.00 46 1016.4
20210727192331 82 195 4.0 12.0 0.00 0.00 0.00 50 1016.4
20210727191830 82 227 5.0 14.0 0.00 0.00 0.00 48 1016.4
20210727191330 82 157 5.0 15.0 0.00 0.00 0.00 48 1016.6
20210727190832 82 214 4.0 14.0 0.00 0.00 0.00 48 1016.8
20210727190332 81 269 4.0 11.0 0.00 0.00 0.00 54 1016.9
20210727185831 82 250 4.0 11.0 0.00 0.00 0.00 51 1017.0
20210727185330 81 302 4.0 9.0 0.00 0.00 0.00 52 1017.1
20210727184831 82 264 5.0 11.0 0.00 0.00 0.00 55 1017.2
20210727184330 81 225 5.0 11.0 0.00 0.00 0.00 53 1017.2
20210727183831 81 240 4.0 9.0 0.00 0.00 0.00 54 1017.1
20210727183330 81 324 4.0 9.0 0.00 0.00 0.00 50 1017.2
20210727182830 81 212 5.0 14.0 0.00 0.00 0.00 50 1017.3
20210727182333 81 236 5.0 14.0 0.00 0.00 0.00 52 1017.4
20210727181831 81 295 4.0 9.0 0.00 0.00 0.00 51 1017.6
20210727181329 81 184 4.0 10.0 0.00 0.00 0.00 50 1017.7
20210727180829 81 324 5.0 10.0 0.00 0.00 0.00 54 1017.6
20210727180329 81 295 6.0 13.0 0.00 0.00 0.00 55 1017.7
20210727175829 81 219 5.0 13.0 0.00 0.00 0.00 52 1017.6
20210727175329 81 221 5.0 12.0 0.00 0.00 0.00 54 1017.8
20210727174829 80 328 6.0 12.0 0.00 0.00 0.00 55 1017.8
20210727174329 80 304 5.0 12.0 0.00 0.00 0.00 56 1017.8
20210727173830 80 278 6.0 14.0 0.00 0.00 0.00 57 1017.9